Regional Weather Roundup
Issued by NWS Upton, NY

Current Version | Previous Version | Text Only | Print | Product List | Glossary On
Versions: 1 2 3 4 5 6 7 8 9 10 11 12 13 14 15 16 17 18 19 20 21 22 23 24 25 26 27 28 29 30 31 32 33 34 35 36 37 38 39 40 41 42 43 44 45 46 47 48 49 50
000 ASUS41 KOKX 060808 RWROKX REGIONAL WEATHER ROUNDUP NATIONAL WEATHER SERVICE NEW YORK NY 300 AM EST TUE DEC 06 2016 NOTE: "FAIR" INDICATES FEW OR NO CLOUDS BELOW 12,000 FEET WITH NO SIGNIFICANT WEATHER AND/OR OBSTRUCTIONS TO VISIBILITY. NYZ071-072-176-178-NJZ106-104-060900- NEW YORK CITY METRO AREA CITY SKY/WX TMP DP RH WIND PRES REMARKS Central Park CLEAR 40 28 62 W3 30.14S Wall St Helipt SUNNY 43 30 60 W5 30.13S Bronx Bot Gard NOT AVBL LaGuardia APRT PTCLDY 43 29 57 NW8 30.11F Kennedy INTL PTCLDY 39 26 59 NW6 30.13S WCI 35 Breezy Point N/A 41 N/A N/A NW9 N/A Newark/Liberty PTCLDY 37 31 78 S3 30.13S Teterboro CLEAR 33 28 81 CALM 30.12S $$ NYZ177-179-078>081-060900- LONG ISLAND NEW YORK CITY SKY/WX TMP DP RH WIND PRES REMARKS Jones Beach N/A 41 N/A N/A NW8 N/A Matinecock PT NOT AVBL Farmingdale CLEAR 37 28 70 W3 30.11F MacArthur/ISP CLEAR 32 27 81 NW6 30.10F WCI 26 Shirley CLEAR 30 28 92 CALM 30.11S Westhampton CLEAR 24 20 84 CALM 30.11F Southampton NOT AVBL Bridgehampton NOT AVBL East Hampton N/A 37 30 75 CALM 30.09S Montauk N/A 44 32 62 NW14G21 30.10R $$ NYZ052-065-067-060900- HUDSON VALLEY CITY SKY/WX TMP DP RH WIND PRES REMARKS White Plains CLEAR 37 27 67 NW8 30.09S WCI 31 Newburgh PTCLDY 30 28 93 W5 30.12R WCI 25 Montgomery CLEAR 30 25 81 CALM 30.10S Poughkeepsie CLEAR 27 24 89 CALM 30.11R Albany CLOUDY 38 31 76 W9 30.10S WCI 31 $$ NJZ001-105-106-008-010-013-015-019>022-104-060900- NEW JERSEY CITY SKY/WX TMP DP RH WIND PRES REMARKS Newark/Liberty PTCLDY 37 31 78 S3 30.13S Teterboro CLEAR 33 28 81 CALM 30.12S Caldwell CLEAR 30 27 88 CALM 30.13S Somerville CLEAR 27 24 89 CALM 30.12R Linden N/A 35 30 82 CALM 30.13R Sussex CLEAR 24 23 96 CALM 30.11S Andover N/A 27 26 96 CALM 30.12S Trenton PTCLDY 35 28 75 NW5 30.13R WCI 31 Millville CLOUDY 40 33 76 N7 30.12F Atlantic City PTCLDY 36 31 82 N6 30.12S WCI 31 Wrightstown MOCLDY 36 30 78 NW5 30.11R WCI 32 Toms River CLOUDY 29 28 96 CALM 30.13S Belmar PTCLDY 32 29 88 NW6 30.13R WCI 26 $$ PAZ047>061-062-071-060900- EASTERN PENNSYLVANIA CITY SKY/WX TMP DP RH WIND PRES REMARKS Philadelphia MOCLDY 39 30 70 N7 30.15R WCI 34 Allentown CLOUDY 30 26 85 CALM 30.13R Scranton CLOUDY 30 26 85 E5 30.10S WCI 25 $$ CTZ002-004>006-009-010-012-RIZ004-006-007-MAZ004-011-015-060900- SOUTHERN NEW ENGLAND IN CT CITY SKY/WX TMP DP RH WIND PRES REMARKS Bradley INTL MOCLDY 34 29 82 W6 30.10R WCI 29 Hartford CLEAR 31 27 85 SE3 30.11R Danbury CLEAR 26 23 88 CALM 30.12R Wtrbury/Oxford CLEAR 32 25 74 CALM 30.10S Bridgeport NOT AVBL Meriden CLEAR 28 25 88 CALM 30.11R New Haven CLEAR 36 27 69 NW5 30.11S WCI 32 Chester N/A 36 27 69 W5 30.09S WCI 32 Groton CLEAR 36 29 75 NW6 30.10R WCI 31 Wilimantic CLEAR 28 25 88 CALM 30.10R IN RI CITY SKY/WX TMP DP RH WIND PRES REMARKS Providence CLEAR 38 29 70 NW9 30.07S WCI 31 Block Island CLEAR 42 31 64 NW16 30.09R Westerly CLEAR 35 27 72 W5 30.10R WCI 31 IN MA CITY SKY/WX TMP DP RH WIND PRES REMARKS Boston CLEAR 36 31 82 W10 30.07R WCI 28 Worcester CLEAR 31 27 85 W10 30.04R WCI 22 Westfield PTCLDY 34 31 88 CALM 30.09R Provincetown PTCLDY 41 33 73 NW21G26 30.04S Nantucket CLEAR 41 31 67 NW21G26 30.04R $$ ANZ330-335-338-340-345-350-353-355-060900- COASTAL MARINE OBSERVATIONS STATION/POSITION TIME SKY/WX TEMP WIND PRES VSBY WAVE AIR SEA DIR/SP/G HT/PER (UTC) (F) (DEG/KT/KT) (MB) (MI) (FT/S) NY HARB ENTRANCE 0650 46 53 320/ 16/ 19 1019.5 2/ 9 20 S FIRE ISLAND 0650 47 54 330/ 17/ 21 1019.1 3/ 4 GREAT SOUTH BAY NOT AVBL 23 SSW MONTAUK P 0750 46 53 310/ 19/ 23 1018.7 3/ 5 15 E BARNEGAT LI 0730 54 N/A 3/ 4 HUDSON CANYON 0650 49 58 1018.5 5/ 5 KINGS POINT 0730 42 48 1019.5 EXECUTION ROCKS 0745 42 310/ 8/ 12 N/A CENTRAL LI SOUND 0745 44 50 320/ 14/ 16 N/A 2/ 4 EASTERN LI SOUND NOT AVBL ROBBINS REEF 0742 41 310/ 6/ 8 1020.3 $$ >>>>>>>>>>>>>>>>>>>>>>>>>>>> KEY <<<<<<<<<<<<<<<<<<<<<<<<<<< > < > SKY/WX - Sky Condition/Present Weather < > TMP - Temperature in Fahrenheit < > DP - Dew Point in Fahrenheit < > RH - Relative Humidity in Percent < > WIND - Direction (from) and Speed in MPH < > PRES - Mean Sea Level Pressure (inches of Hg) < > WCI - Wind Chill Index < > VSB - VISIBILITY IN MILES < > HX - HEAT INDEX < > TC - TEMPERATURE IN CELSIUS < > VRB - VARIABLE WIND DIRECTION < > < >>>>>>>>>>>>>>>>>>>>>>>>>>>> KEY <<<<<<<<<<<<<<<<<<<<<<<<<<<

USA.gov is the U.S. government's official web portal to all federal, state and local government web resources and services.